Flag for China Weather past 2 weeks in Shenzhen, Guangdong, China

Now
86 °F

Passing clouds.


Feels Like: 99 °F
Forecast: 83 / 96 °F
Wind: 6 mph from Southwest

Location: Shenzhen Airport

Current Time: Jul 1, 2015 at 8:20:43 AM

Latest Report: Jul 1, 2015 at 8:00 AM


Visibility: N/A

Pressure: 29.68 "Hg

Humidity: 79%

Dew point: 79 °F

Location of ShenzhenLocation

Historic Weather in Shenzhen — Graph

°F

Shenzhen temperature yesterday

Maximum temperature yesterday: 90 °F (at 12:00 PM)
Minimum temperature yesterday: 84 °F (at 2:00 AM)
Average temperature yesterday: 87 °F

Past Weeks' High & Low Weather Summary

 TemperatureHumidityPressure
High91 °F (Jun 16, 2:00 PM)94% (Jun 24, 6:00 AM)29.83 "Hg (Jun 24, 6:00 AM)
Low79 °F (Jun 21, 4:00 PM)59% (Jun 21, 11:00 AM)29.56 "Hg (Jun 22, 4:00 PM)
Average86 °F80%29.70 "Hg
* Reported Jun 16 7:00 AM — Jul 1 7:00 AM, Shenzhen, Weather by CustomWeather, © 2015

Note: Actual official high and low records may vary slightly from our data, if they occured in-between our weather recording intervals... More about our weather records

Advertising

Shenzhen weather history for previous 24 hours

 ConditionsComfort  
Time TempWeatherWind HumidityBarometerVisibility
7:00 AM
Wed, Jul 1
86 °FBroken clouds.8 mph84%29.68 "HgN/A
6:00 AM86 °FScattered clouds.13 mph84%29.65 "HgN/A
5:00 AM84 °FPassing clouds.13 mph89%29.65 "HgN/A
4:00 AM84 °FPassing clouds.15 mph89%29.62 "HgN/A
3:00 AM84 °FPassing clouds.13 mph89%29.65 "HgN/A
2:00 AM86 °FPassing clouds.15 mph84%29.65 "HgN/A
1:00 AM86 °FPassing clouds.15 mph84%29.68 "HgN/A
12:00 AM86 °FPassing clouds.15 mph84%29.68 "HgN/A
11:00 PM
Tue, Jun 30
86 °FClear.15 mph84%29.68 "Hg10 mi
10:00 PM86 °FClear.15 mph84%29.68 "Hg10 mi
9:00 PM86 °FClear.17 mph84%29.65 "Hg10 mi
8:00 PM86 °FClear.15 mph84%29.65 "Hg10 mi
7:00 PM86 °FSunny.17 mph84%29.62 "Hg10 mi
6:00 PM88 °FSunny.17 mph75%29.62 "Hg10 mi
5:00 PM88 °FSunny.17 mph79%29.62 "Hg10 mi
4:00 PM90 °FSunny.20 mph75%29.62 "Hg10 mi
3:00 PM90 °FSunny.20 mph75%29.65 "Hg10 mi
2:00 PM90 °FSunny.17 mph75%29.68 "Hg10 mi
1:00 PM90 °FPassing clouds.15 mph79%29.68 "HgN/A
12:00 PM90 °FPassing clouds.10 mph75%29.71 "HgN/A
11:00 AM88 °FPassing clouds.8 mph79%29.74 "HgN/A
10:00 AM88 °FPassing clouds.10 mph79%29.74 "HgN/A
9:00 AM88 °FPassing clouds.8 mph79%29.74 "HgN/A
8:30 AM88 °FPassing clouds.8 mph75%29.74 "HgN/A
8:00 AM86 °FPassing clouds.8 mph79%29.74 "HgN/A
Weather by CustomWeather, © 2015

See weather overviewHow to use our weather pages